Location: Dehesa de la Cepeda
(40.6574°N, 4.3013°W)
Time: 02:19:01
(UTC+00:00)

Tiros 1 - All Passes

Search period start: 06 August 2021 00:00
Search period end: 16 August 2021 00:00
Orbit: 630 x 664 km, 48.4° (Epoch: 05 August)

Date Brightness Start Highest point End Pass type
(mag) Time Alt. Az. Time Alt. Az. Time Alt. Az.
06 Aug - 15:06:23 10° SSW 15:10:30 29° SE 15:14:37 10° ENE daylight
06 Aug - 16:47:40 10° WSW 16:52:27 69° NNW 16:57:14 10° ENE daylight
06 Aug - 18:30:52 10° WNW 18:35:13 33° N 18:39:33 10° ENE daylight
06 Aug - 20:13:46 10° NW 20:18:15 38° NNE 20:22:40 10° E visible
06 Aug - 21:56:00 10° WNW 22:00:45 77° SSW 22:05:26 10° SE visible
06 Aug - 23:39:36 10° W 23:42:21 15° SW 23:45:04 10° SSW visible
07 Aug - 13:53:09 10° SSE 13:54:46 12° SE 13:56:22 10° ESE daylight
07 Aug - 15:31:30 10° SW 15:36:14 61° SE 15:40:58 10° ENE daylight
07 Aug - 17:14:01 10° W 17:18:36 43° NNW 17:23:11 10° NE daylight
07 Aug - 18:57:17 10° WNW 19:01:36 32° N 19:05:52 10° ENE daylight
07 Aug - 20:39:46 10° NW 20:44:28 57° NNE 20:49:06 10° ESE visible
07 Aug - 22:22:12 10° WNW 22:26:33 37° SW 22:30:51 10° SSE visible
08 Aug - 14:16:16 10° SSW 14:20:16 27° SE 14:24:16 10° E daylight
08 Aug - 15:57:21 10° WSW 16:02:10 73° NNW 16:06:58 10° ENE daylight
08 Aug - 17:40:32 10° WNW 17:44:54 34° N 17:49:16 10° ENE daylight
08 Aug - 19:23:29 10° NW 19:27:57 37° NNE 19:32:21 10° E daylight
08 Aug - 21:05:43 10° WNW 21:10:30 83° SSW 21:15:12 10° SE visible
08 Aug - 22:49:06 10° W 22:52:08 17° SW 22:55:08 10° S visible
09 Aug - 13:03:47 10° SE 13:04:33 10° SE 13:05:18 10° ESE daylight
09 Aug - 14:41:16 10° SW 14:45:58 56° SE 14:50:41 10° ENE daylight
09 Aug - 16:23:40 10° W 16:28:18 45° NNW 16:32:55 10° NE daylight
09 Aug - 18:06:58 10° WNW 18:11:17 32° N 18:15:34 10° ENE daylight
09 Aug - 19:49:28 10° NW 19:54:10 54° NNE 19:58:48 10° E visible
09 Aug - 21:31:52 10° WNW 21:36:19 40° SW 21:40:42 10° SSE visible
10 Aug - 13:26:10 10° S 13:30:01 24° SE 13:33:54 10° E daylight
10 Aug - 15:07:03 10° WSW 15:11:53 77° NNW 15:16:42 10° ENE daylight
10 Aug - 16:50:11 10° WNW 16:54:35 34° N 16:58:59 10° ENE daylight
10 Aug - 18:33:10 10° NW 18:37:38 37° NNE 18:42:02 10° E daylight
10 Aug - 20:15:26 10° WNW 20:20:13 88° SW 20:24:57 10° ESE visible
10 Aug - 21:58:38 10° W 22:01:55 19° SW 22:05:10 10° S visible
11 Aug - 13:51:03 10° SW 13:55:42 52° SE 14:00:23 10° ENE daylight
11 Aug - 15:33:20 10° W 15:37:59 47° NNW 15:42:39 10° NE daylight
11 Aug - 17:16:38 10° WNW 17:20:57 32° N 17:25:15 10° ENE daylight
11 Aug - 18:59:12 10° NW 19:03:53 51° NNE 19:08:30 10° E daylight
11 Aug - 20:41:33 10° WNW 20:46:04 44° SW 20:50:32 10° SSE visible
12 Aug - 12:36:05 10° S 12:39:48 22° SE 12:43:31 10° E daylight
12 Aug - 14:16:46 10° WSW 14:21:36 82° NNW 14:26:26 10° ENE daylight
12 Aug - 15:59:50 10° WNW 16:04:16 35° N 16:08:41 10° ENE daylight
12 Aug - 17:42:52 10° WNW 17:47:19 36° N 17:51:43 10° ENE daylight
12 Aug - 19:25:09 10° WNW 19:29:57 86° NNE 19:34:42 10° ESE daylight
12 Aug - 21:08:12 10° W 21:11:42 21° SW 21:15:10 10° S visible
13 Aug - 13:00:51 10° SW 13:05:27 48° SE 13:10:04 10° ENE daylight
13 Aug - 14:43:00 10° W 14:47:41 50° NNW 14:52:22 10° NE daylight
13 Aug - 16:26:18 10° WNW 16:30:38 32° N 16:34:56 10° ENE daylight
13 Aug - 18:08:55 10° NW 18:13:35 49° NNE 18:18:12 10° E daylight
13 Aug - 19:51:14 10° WNW 19:55:49 48° SW 20:00:22 10° SE visible
14 Aug - 11:46:02 10° S 11:49:33 21° SE 11:53:06 10° E daylight
14 Aug - 13:26:30 10° WSW 13:31:19 87° NNW 13:36:09 10° ENE daylight
14 Aug - 15:09:29 10° WNW 15:13:57 36° N 15:18:24 10° ENE daylight
14 Aug - 16:52:34 10° WNW 16:57:00 35° N 17:01:23 10° ENE daylight
14 Aug - 18:34:52 10° WNW 18:39:41 81° NNE 18:44:26 10° ESE daylight
14 Aug - 20:17:47 10° W 20:21:28 22° SW 20:25:07 10° S visible
15 Aug - 12:10:39 10° SSW 12:15:11 44° SE 12:19:46 10° ENE daylight
15 Aug - 13:52:41 10° W 13:57:23 52° NNW 14:02:06 10° NE daylight
15 Aug - 15:35:59 10° WNW 15:40:18 32° N 15:44:38 10° ENE daylight
15 Aug - 17:18:37 10° NW 17:23:16 47° NNE 17:27:53 10° E daylight
15 Aug - 19:00:55 10° WNW 19:05:34 52° SW 19:10:10 10° SE daylight
